Orbital Elements at Epoch 2459200.5 (2020-Dec-17.0) TDB
Reference: JPL 16 (heliocentric ecliptic J2000)
Element | Value | Uncertainty (1-sigma) | Units |
e | .2265378534676533 | 1.3058e-07 | |
a | 2.47224784436783 | 2.424e-08 | au |
q | 1.912190124464709 | 3.0841e-07 | au |
i | 7.255834835967589 | 8.4413e-06 | deg |
node | 120.1176296615201 | 6.936e-05 | deg |
peri | 285.2412726872275 | 7.3482e-05 | deg |
M | 299.2369094013667 | 1.8583e-05 | deg |
tp | 2459440.147990531631 (2021-Aug-13.64799053) | 7.4551e-05 | TDB |
period | 1419.830290747713 3.89 | 2.0882e-05 5.717e-08 | d yr |
n | .2535514295940372 | 3.7291e-09 | deg/d |
Q | 3.032305564270952 | 2.9731e-08 | au |
|
| | Orbit Determination Parameters
Additional Information
|